This is the latest recevied weather packets stored in our database for station/object KO4IEJ. If no packets are shown the sender has not sent any weather packets the latest 10 day(s).
| Time | Temp. | Humidity | Pressure | Rain* | Wind** | Luminosity | Snow |
|---|---|---|---|---|---|---|---|
| 1778107551 | 0.56° C | 68% | 1018.7 hPa | 0.51 mm | - | - | - |
| 1778103956 | 1.11° C | 66% | 1018.5 hPa | 0.51 mm | - | - | - |
| 1778098613 | 0° C | 73% | 1018.8 hPa | 0 mm | - | - | - |
| 1778097657 | -0.56° C | 74% | 1018.6 hPa | 0 mm | - | - | - |
| 1778082357 | -2.22° C | 87% | 1015.1 hPa | 0 mm | - | - | - |
| 1778081456 | -2.78° C | 89% | 1015.2 hPa | 0 mm | - | - | - |
| 1778075156 | -4.44° C | 92% | 1015.6 hPa | 0 mm | - | - | - |
| 1778073374 | -3.89° C | 93% | 1015.6 hPa | 0 mm | - | - | - |
| 1778069758 | -3.33° C | 94% | 1014.1 hPa | 0 mm | - | - | - |
| 1778067053 | -2.78° C | 94% | 1013.2 hPa | 0 mm | - | - | - |
| 1778066154 | -2.78° C | 94% | 1013.2 hPa | 0 mm | - | - | - |
| 1778064374 | -2.78° C | 94% | 1013.2 hPa | 0 mm | - | - | - |
| 1778062563 | -2.22° C | 95% | 1013.3 hPa | 0 mm | - | - | - |
| 1778058059 | -1.67° C | 95% | 1013.6 hPa | 0 mm | - | - | - |
| 1778051758 | -1.67° C | 94% | 1013.9 hPa | 0 mm | - | - | - |
| 1778049066 | -1.67° C | 94% | 1013.9 hPa | 0 mm | - | - | - |
| 1778043657 | -1.11° C | 94% | 1013.6 hPa | 0 mm | - | - | - |
| 1778042753 | -1.11° C | 94% | 1013.5 hPa | 0 mm | - | - | - |
| 1778030176 | 1.67° C | 92% | 1011.1 hPa | 0.51 mm | - | - | - |
| 1778027458 | 1.67° C | 94% | 1010.1 hPa | 0.51 mm | - | - | - |
| 1778022060 | 1.11° C | 92% | 1011.4 hPa | 0 mm | - | - | - |
| 1778020258 | 1.11° C | 91% | 1011.3 hPa | 0.25 mm | - | - | - |
| 1778017557 | 1.11° C | 91% | 1011.2 hPa | 0.25 mm | - | - | - |
| 1778015754 | 1.11° C | 89% | 1011.7 hPa | 0.25 mm | - | - | - |
| 1778013954 | 2.22° C | 87% | 1011.9 hPa | 0 mm | - | - | - |
* Rain latest hour (hover to see other rain measurements)
** Current wind speed in m/s (hover to see current wind gust speed)